Temperature
15 16 16 16 16 17 18 21 23 24 25 26 26 26 25 25 25 22 21 20 20 20 19 18 18 17 17 17 17 16 16 16 16 15 15 15 15 15 14 14 14 14 14 14 13 13 13 14 14
15 15 16 17 16 17 19 21 22 24 25 25 25 25 25 25 24 22 21 20 19 19 18 18 17 17 17 17 16 16 16 16 15 15 15 15 15 14 14 14 14 13 13 13 13 13 13 13 14
15 15 16 17 17 18 20 23 23 24 25 25 24 24 25 24 23 22 21 20 19 18 18 17 17 16 16 16 16 16 16 15 15 15 15 15 14 14 14 14 13 13 13 13 13 13 13 14 14
14 15 16 17 17 19 21 23 24 24 24 24 24 24 24 23 22 21 20 20 18 18 17 17 17 16 16 16 16 16 15 15 15 15 14 14 14 14 13 13 13 13 13 13 13 13 13 13 13
14 15 15 16 17 20 22 23 24 23 24 24 24 23 23 22 22 21 20 19 18 17 17 17 16 16 16 16 15 15 15 15 15 14 14 14 14 13 13 13 13 13 12 12 12 12 13 13 13
14 15 15 16 18 20 21 23 23 23 23 24 23 23 22 22 21 21 20 19 18 17 17 16 16 16 16 15 15 15 15 15 14 14 14 14 13 13 13 12 12 12 12 12 12 12 12 13 13
14 14 15 16 18 19 21 23 23 22 22 23 23 22 22 21 20 20 19 19 18 17 17 16 16 15 15 15 15 15 15 15 14 14 14 14 13 13 12 12 12 12 12 12 12 12 12 13 13
13 14 15 16 17 19 21 22 22 22 22 22 22 22 21 20 19 19 18 18 18 17 16 16 16 15 15 15 15 14 14 14 14 14 14 13 13 13 12 12 12 12 11 12 12 12 12 12 13
13 13 14 16 17 18 20 20 21 21 21 21 21 21 20 20 19 18 18 18 17 17 16 16 15 15 15 14 14 14 14 14 14 14 13 13 13 12 12 12 11 11 11 12 12 12 12 12 12
13 12 14 16 17 18 19 19 19 19 19 20 20 19 19 19 18 18 18 17 17 17 16 16 15 15 14 14 14 14 14 13 13 13 13 12 12 12 11 11 11 11 11 12 12 12 12 12 12
13 13 14 16 16 17 17 17 18 18 18 19 19 18 18 18 17 17 17 17 17 17 16 16 15 15 14 14 14 14 13 13 13 13 12 12 12 11 11 11 11 11 11 11 11 11 11 11 11
13 14 14 15 15 15 16 16 17 17 18 18 18 18 17 17 17 17 17 17 17 16 16 16 15 15 14 14 14 13 13 13 13 12 12 12 12 11 11 11 11 11 11 11 11 11 11 11 11
13 13 14 14 14 15 15 15 16 17 17 18 18 18 17 17 16 17 17 17 17 16 16 16 15 15 15 14 14 13 13 13 13 13 12 12 12 11 11 11 11 11 11 11 11 11 11 11 10
13 13 13 13 13 14 14 15 15 16 17 17 17 17 17 17 16 16 17 17 16 16 16 16 15 15 15 14 14 13 13 13 13 12 12 12 12 11 11 11 11 11 10 10 10 11 10 10 10
12 11 12 13 13 14 14 13 14 16 17 17 17 17 17 17 17 17 17 16 16 16 16 16 15 15 15 14 14 14 13 13 13 12 12 12 12 11 11 11 11 11 10 10 10 10 10 10 10
11 11 11 13 13 13 13 12 14 16 16 17 17 17 17 17 17 17 17 16 16 16 16 15 15 15 14 14 14 14 13 13 13 12 12 12 12 11 11 11 11 11 10 10 10 10 10 10 10
10 10 11 12 13 13 13 12 14 16 16 16 17 17 17 17 17 17 17 17 16 16 16 15 15 15 14 14 14 14 13 13 13 13 12 12 12 11 11 11 11 10 10 10 10 10 10 10 10
9 10 11 11 12 13 12 12 14 15 16 16 16 16 17 17 17 17 17 17 16 16 16 15 15 15 14 14 13 13 13 13 13 12 12 12 12 11 11 11 11 11 10 10 10 10 10 10 10
10 10 10 11 12 12 11 12 13 14 14 15 15 16 16 17 17 16 17 16 16 16 15 15 15 14 14 14 13 13 13 13 12 12 12 12 12 12 11 11 11 11 10 10 10 10 10 10 10
10 9 9 11 12 12 11 12 13 14 14 14 15 16 16 17 17 16 16 16 16 16 15 15 15 14 14 14 14 14 13 13 13 12 12 12 12 12 11 11 11 11 10 10 10 10 10 10 10
9 9 10 10 11 11 11 11 12 13 14 15 15 15 16 16 16 16 16 16 15 15 15 15 15 14 14 14 13 13 13 12 12 12 12 12 12 11 11 11 11 11 11 11 10 10 10 10 10
9 10 10 10 9 9 10 9 11 12 13 14 14 14 15 15 16 16 16 15 15 15 15 15 14 14 14 13 13 13 13 13 13 13 12 12 12 11 11 11 11 11 11 11 10 10 10 10 10
9 10 10 9 9 8 9 9 10 13 13 13 13 14 14 15 15 15 15 15 15 15 15 14 14 14 13 13 13 13 13 13 13 13 12 12 12 11 11 11 11 11 11 11 10 10 10 10 10
10 9 9 9 8 8 9 9 10 12 13 13 14 14 14 14 14 14 14 15 14 14 14 14 14 13 13 13 13 13 13 12 12 12 12 12 12 12 11 11 11 11 11 11 11 10 10 10 10
9 8 7 7 7 8 11 11 11 12 13 13 13 13 14 13 13 13 13 13 14 13 13 13 13 13 13 13 13 13 13 12 12 12 12 12 12 12 12 11 11 11 11 11 11 10 10 10 10
8 8 7 7 7 9 10 10 11 13 13 14 13 13 13 13 13 13 13 13 13 13 13 13 13 13 13 13 13 13 12 12 12 12 12 12 12 12 12 12 12 11 11 11 11 11 10 10 10
8 7 8 7 7 7 9 10 11 13 12 12 12 12 11 12 12 12 12 12 12 12 12 12 12 12 12 13 13 13 12 12 12 12 12 12 12 12 12 12 11 11 11 11 11 11 11 11 10
8 8 7 6 6 7 9 10 10 10 11 11 11 10 11 11 11 11 11 11 11 11 12 12 12 12 12 12 12 12 12 12 12 12 12 12 12 11 11 11 11 11 11 11 11 11 11 11 11
7 7 7 6 6 6 7 9 11 10 10 10 10 11 11 10 10 10 11 11 11 11 11 11 11 11 11 12 12 12 12 12 12 12 12 12 12 12 11 11 11 11 11 11 11 11 11 11 11
7 7 6 5 5 6 6 8 11 10 10 10 10 10 10 10 10 10 10 10 10 10 10 10 11 11 11 11 11 11 12 12 11 12 12 12 12 12 12 11 11 11 11 11 11 11 11 11 11
Wind_Speed
7 10 8 4 5 7 14 11 11 9 6 2 2 4 6 5 3 3 6 7 13 16 19 21 21 21 21 20 19 19 18 18 17 17 16 17 17 16 16 15 15 15 15 15 16 16 16 16 16
9 9 6 4 7 12 12 14 16 13 5 1 1 4 6 4 2 8 6 9 14 16 18 19 21 21 21 20 20 19 19 18 17 17 17 17 17 16 16 15 15 15 15 16 16 16 16 16 15
10 10 5 5 10 15 10 7 9 7 4 2 2 4 5 2 3 5 8 12 13 14 16 19 21 21 21 20 20 20 19 18 18 17 17 17 17 16 16 15 15 15 15 16 16 15 15 15 14
5 5 5 10 20 17 15 12 7 5 4 3 4 4 3 0 2 7 11 12 12 13 15 20 22 21 21 21 20 20 19 19 18 18 17 17 16 16 16 16 16 16 16 16 15 15 15 14 13
5 5 10 15 23 19 16 14 11 9 7 6 7 7 3 1 7 10 10 11 11 12 15 21 22 22 21 21 20 20 20 19 19 18 17 17 17 16 16 16 16 16 16 15 15 14 14 13 12
5 5 11 19 21 19 17 14 13 12 10 8 7 8 4 3 6 8 8 9 10 12 14 19 22 21 21 21 20 20 20 19 19 18 17 17 17 17 17 17 16 16 15 15 14 13 13 12 11
7 8 15 19 19 17 15 12 11 10 10 8 6 7 4 3 5 7 8 8 10 12 13 15 17 19 20 20 20 20 20 19 19 18 17 17 17 18 17 17 16 15 15 14 14 13 12 11 10
6 6 15 18 19 17 12 11 11 10 9 6 6 7 4 4 5 5 6 7 9 11 13 14 15 15 16 17 19 19 19 19 19 18 17 17 17 17 17 16 16 15 14 14 13 12 12 11 9
5 10 17 17 15 12 10 12 10 7 9 8 6 7 2 7 6 6 6 6 8 10 11 13 14 14 14 15 18 18 19 19 19 18 18 17 15 15 15 16 16 15 14 14 13 12 12 11 8
8 13 18 14 13 13 12 13 11 9 12 10 7 4 4 6 7 8 8 9 10 11 12 12 14 14 14 14 15 14 15 16 16 16 17 14 14 14 14 17 16 15 14 13 13 12 12 10 8
9 15 16 17 16 15 15 15 12 13 14 12 9 6 5 6 7 9 10 9 10 11 12 12 13 13 13 10 11 10 11 12 14 16 16 13 12 13 13 12 13 13 13 11 12 11 9 9 8
13 17 17 18 15 15 16 15 15 16 16 11 10 9 8 10 10 10 11 11 10 11 12 12 12 12 13 12 10 9 9 9 9 13 16 12 8 8 9 8 10 11 11 10 10 8 8 8 9
16 16 17 16 17 17 18 18 18 19 16 13 11 11 12 12 11 10 10 10 10 11 13 13 13 13 13 12 9 10 9 9 10 10 14 13 8 8 8 8 9 10 10 9 6 5 6 5 6
10 13 15 17 17 16 19 19 17 18 15 13 12 12 12 12 12 12 11 11 11 11 13 13 14 14 13 11 10 10 9 10 11 10 12 15 11 8 8 7 7 7 9 10 7 5 5 4 4
12 14 16 15 16 13 13 17 17 16 14 14 13 13 13 13 13 13 13 12 12 11 12 13 14 15 14 13 12 10 9 10 9 10 13 15 13 11 9 7 7 7 10 9 7 6 4 4 4
10 10 10 10 11 11 10 16 14 12 13 14 12 12 12 13 14 13 14 13 13 12 12 13 13 14 15 13 11 9 10 10 9 11 12 14 15 14 9 7 7 9 9 6 5 5 4 4 4
6 8 12 10 9 8 11 15 14 12 13 14 12 12 12 12 13 13 14 14 13 13 13 13 13 14 14 13 11 10 9 9 9 10 11 12 14 15 10 7 7 9 7 5 5 5 4 4 4
7 10 12 12 8 10 14 17 15 12 13 13 12 12 12 12 12 12 12 13 13 14 13 14 13 14 14 12 9 8 9 9 9 9 10 13 13 15 11 8 9 9 7 6 6 6 5 4 5
11 14 16 16 12 12 15 18 17 14 14 13 12 13 12 12 11 10 10 10 12 12 13 14 14 14 13 12 11 11 10 9 9 9 12 14 14 14 11 8 9 8 8 8 8 6 6 5 4
12 15 16 14 10 12 15 19 17 15 14 13 13 12 11 10 10 9 10 11 11 13 13 14 14 14 14 12 11 10 10 9 9 8 11 14 14 14 12 11 9 9 8 9 9 7 5 4 5
12 13 14 14 14 12 13 14 15 12 13 12 11 10 8 8 7 7 7 9 10 11 14 13 14 14 13 12 10 9 8 7 8 10 10 12 14 14 13 12 10 10 9 9 9 8 8 6 5
11 10 13 14 10 7 6 10 11 12 12 11 9 8 7 8 7 6 6 6 7 9 10 13 13 13 13 13 12 13 12 11 11 11 10 11 13 13 14 13 12 11 9 10 10 9 7 8 6
9 11 13 13 11 11 10 9 8 8 10 9 8 8 7 6 5 5 6 6 6 6 7 9 12 13 13 14 15 15 13 11 9 10 12 13 12 13 14 14 13 12 10 11 11 10 9 7 7
8 9 10 9 6 8 9 9 7 6 7 7 6 5 5 4 4 3 3 3 3 4 6 6 9 13 14 15 17 17 16 13 13 14 14 13 11 12 14 14 13 12 11 11 11 11 11 9 8
5 4 3 3 4 7 6 7 6 5 3 3 3 2 1 1 2 3 1 2 2 3 5 6 8 10 12 15 17 18 18 16 16 15 16 14 12 12 16 15 14 13 12 12 11 11 11 10 10
5 4 3 4 4 6 5 6 4 3 2 1 1 3 3 3 2 3 2 2 2 3 4 5 7 9 11 13 15 16 17 14 13 14 13 15 13 13 15 16 15 14 14 13 12 10 11 10 10
4 4 5 6 7 7 6 5 6 4 3 2 3 4 5 4 5 4 3 2 1 3 4 6 6 8 10 11 12 14 16 16 15 14 13 13 12 12 15 16 16 15 14 14 13 11 12 11 11
6 4 3 3 4 6 6 6 5 1 3 3 4 4 4 5 6 5 4 4 2 3 4 5 6 8 8 9 10 10 13 15 15 14 15 14 15 14 16 17 17 16 15 15 14 11 11 12 11
5 5 5 4 5 4 5 3 4 3 3 4 4 4 4 5 5 5 5 5 4 3 3 4 5 6 7 8 9 9 11 12 13 14 15 14 15 16 16 17 17 17 17 16 15 14 14 14 12
7 7 6 5 7 6 6 6 4 3 3 3 5 5 5 6 7 7 6 6 5 4 3 4 4 5 6 7 8 9 10 11 12 13 14 14 15 16 17 17 17 17 17 16 17 17 16 16 15
Wind_Direction
267 242 230 233 235 232 240 240 252 260 251 253 325 300 292 284 297 120 167 150 125 138 146 157 155 155 153 150 147 143 140 137 135 135 134 131 128 125 122 119 117 116 113 109 107 104 101 100 97
265 238 230 230 232 235 239 231 244 255 266 33 13 300 281 279 47 114 143 126 130 139 146 157 155 155 154 152 148 145 142 139 137 137 135 133 131 127 124 122 119 117 114 111 108 106 104 102 99
265 243 227 226 230 232 239 237 234 238 251 271 235 247 260 278 93 118 128 129 133 140 147 153 155 156 155 154 151 148 146 144 141 139 137 134 132 129 127 126 122 119 117 114 111 109 107 105 102
252 227 239 237 239 236 244 261 271 261 230 204 243 247 227 307 87 115 124 134 138 143 145 152 156 158 157 155 153 151 150 148 145 143 140 137 134 131 129 127 124 122 121 118 115 112 110 108 106
242 232 230 238 243 246 253 260 269 265 258 228 221 243 242 58 100 118 132 141 146 147 145 153 158 160 160 157 156 154 153 151 149 147 145 141 137 135 131 129 127 127 124 121 119 118 115 112 111
223 228 233 239 243 243 246 249 255 256 255 250 239 247 239 161 122 132 144 149 150 146 145 153 159 160 161 160 159 158 155 153 152 150 148 146 142 139 135 133 132 131 129 126 123 123 120 117 116
232 236 242 248 253 251 250 254 253 256 257 252 249 251 228 172 131 139 148 155 149 145 146 151 160 161 163 162 161 159 156 155 153 152 150 147 144 142 139 137 136 134 133 131 128 127 125 121 121
244 250 249 247 250 254 260 264 263 272 272 273 261 254 233 150 137 140 147 156 147 148 150 153 161 163 164 163 161 159 158 156 153 150 147 145 145 145 143 141 140 139 138 135 133 133 130 128 130
241 240 243 244 252 261 275 277 275 280 277 275 272 279 205 147 152 156 158 160 158 157 158 159 165 166 165 164 164 159 158 156 151 148 146 145 146 146 146 142 144 143 142 140 140 140 137 135 142
215 238 246 254 266 277 280 280 287 279 269 266 272 276 158 169 171 183 182 179 176 171 170 168 168 169 168 167 162 162 160 158 158 157 159 163 159 154 148 145 147 147 147 148 149 149 148 151 162
225 241 258 266 275 285 284 277 277 269 263 256 252 241 201 203 199 203 202 194 188 180 176 174 171 169 168 164 165 166 164 167 172 168 170 167 150 140 140 144 146 148 152 155 156 160 177 174 169
248 252 258 264 270 277 280 278 267 260 263 265 254 241 229 223 221 214 210 206 195 187 182 178 174 170 169 167 169 166 167 173 173 171 171 162 153 152 155 159 165 167 170 165 169 184 183 174 169
253 260 263 271 273 273 277 271 268 261 262 264 256 240 234 229 229 230 218 209 204 195 185 181 177 174 170 169 171 171 172 174 168 169 174 164 159 161 162 165 169 173 166 164 176 183 170 168 169
268 276 275 274 274 274 272 272 268 260 259 258 252 245 232 232 228 229 223 214 212 204 190 183 179 176 172 174 174 174 174 173 170 173 174 166 164 164 162 162 165 166 164 169 174 175 166 165 154
277 273 272 261 260 266 273 266 258 261 259 254 246 246 238 233 229 226 221 215 213 209 197 188 182 178 176 177 179 176 175 172 170 171 173 169 168 165 162 162 163 165 167 168 170 164 159 153 150
271 259 257 253 250 259 258 259 258 261 264 259 253 247 240 236 230 228 219 216 212 208 202 193 186 182 180 180 180 176 178 173 168 169 173 173 170 166 164 162 165 167 164 161 158 156 157 153 157
244 257 266 276 253 263 261 269 266 266 263 261 258 254 248 239 233 229 220 211 210 205 204 194 187 186 183 180 180 178 176 174 171 169 172 174 172 169 166 164 166 165 160 161 164 163 165 162 162
273 277 277 278 273 276 273 275 275 270 265 262 258 254 251 243 238 230 223 210 209 204 202 192 187 188 183 179 181 180 178 177 173 172 173 171 172 171 168 166 168 164 161 166 164 167 171 161 162
281 282 282 282 285 279 274 276 275 270 266 262 258 253 246 240 237 232 222 213 205 202 199 194 188 189 186 183 184 185 185 181 177 177 175 174 174 173 170 170 171 168 169 172 169 166 171 172 158
279 282 281 283 285 286 279 274 272 268 263 260 256 254 251 248 235 226 220 214 207 202 196 194 191 191 190 188 184 184 180 182 180 180 179 179 178 176 177 174 173 172 170 173 176 168 168 174 164
275 274 281 288 296 282 285 277 263 263 261 257 253 256 260 257 242 227 223 218 207 200 192 195 192 194 191 185 176 175 173 177 184 187 186 184 181 179 178 179 175 175 174 179 179 176 172 177 182
281 285 290 289 290 281 271 283 267 259 252 246 245 253 255 266 254 226 217 211 203 205 195 192 191 193 190 184 183 179 185 190 193 185 185 184 184 183 182 181 181 180 179 178 181 177 174 170 182
278 296 290 279 277 279 263 264 270 252 248 238 235 242 249 263 268 243 220 211 210 201 191 194 193 197 192 189 190 189 193 194 186 181 183 187 189 188 187 186 186 184 183 181 180 178 180 182 182
291 297 290 271 259 259 244 241 275 254 250 245 236 244 243 252 268 268 227 196 223 196 187 186 196 204 196 194 193 193 196 192 186 189 188 190 190 191 191 190 189 187 185 184 184 184 185 187 186
286 299 300 269 226 246 254 246 257 254 255 260 234 235 284 302 321 334 326 242 226 194 195 196 197 209 205 202 198 197 198 196 195 196 192 190 191 194 194 192 192 190 188 186 183 185 188 188 188
264 252 257 275 267 291 281 250 264 296 316 351 54 47 25 352 342 325 310 271 210 204 210 210 211 218 213 205 202 200 201 201 202 202 200 195 196 194 190 191 193 192 188 188 186 188 190 190 193
269 245 255 273 280 274 254 258 270 279 306 8 45 43 27 1 2 352 350 325 217 217 232 223 220 222 216 210 206 204 203 204 203 202 205 200 196 191 189 191 193 193 191 189 186 191 192 191 195
249 274 271 248 272 270 262 258 280 321 349 18 36 26 2 358 358 345 339 331 293 235 234 233 226 228 219 215 211 212 206 207 204 201 205 202 195 192 189 191 194 193 192 190 188 189 189 191 195
235 239 248 256 260 274 284 278 341 19 36 30 19 10 2 352 344 333 326 319 306 277 246 243 240 242 229 219 215 212 212 211 208 204 206 205 197 192 193 193 194 194 194 192 192 193 190 192 194
243 242 234 249 261 255 269 273 328 7 24 25 12 3 357 355 353 346 337 330 326 312 275 248 245 249 243 229 222 215 212 210 212 212 208 207 200 194 194 193 195 196 195 194 194 195 194 194 195
Height
1491 1493 1495 1498 1498 1494 1486 1473 1463 1459 1456 1456 1458 1459 1460 1461 1464 1471 1470 1469 1469 1469 1471 1475 1478 1482 1485 1488 1491 1494 1497 1500 1502 1504 1506 1508 1510 1512 1514 1515 1517 1518 1520 1521 1522 1523 1523 1524 1525
1490 1493 1496 1495 1493 1490 1478 1467 1463 1458 1456 1457 1459 1460 1461 1461 1462 1465 1466 1468 1468 1469 1471 1474 1478 1481 1485 1488 1491 1494 1497 1499 1502 1504 1506 1508 1510 1512 1514 1515 1517 1518 1520 1521 1522 1523 1524 1525 1526
1489 1492 1493 1488 1483 1477 1469 1456 1455 1454 1455 1457 1459 1461 1462 1462 1463 1464 1465 1466 1468 1470 1472 1474 1478 1481 1484 1487 1490 1493 1496 1499 1501 1504 1506 1508 1510 1512 1514 1515 1517 1518 1520 1521 1522 1523 1524 1525 1526
1489 1490 1488 1483 1472 1463 1461 1456 1453 1453 1455 1457 1459 1460 1461 1462 1463 1463 1464 1466 1468 1470 1471 1474 1477 1481 1484 1487 1490 1493 1496 1498 1501 1503 1506 1508 1510 1512 1513 1515 1517 1518 1520 1521 1522 1524 1524 1526 1527
1487 1486 1484 1476 1465 1460 1456 1454 1453 1453 1454 1455 1458 1458 1459 1461 1461 1462 1464 1466 1468 1470 1471 1473 1477 1480 1483 1486 1489 1492 1495 1498 1500 1503 1505 1507 1509 1511 1513 1515 1516 1518 1520 1521 1523 1524 1525 1526 1528
1484 1481 1478 1469 1460 1456 1453 1453 1453 1452 1452 1454 1456 1457 1458 1460 1460 1461 1463 1466 1468 1469 1471 1473 1476 1479 1483 1486 1489 1492 1494 1497 1500 1502 1504 1507 1509 1511 1512 1514 1516 1518 1520 1521 1523 1524 1525 1527 1528
1480 1477 1470 1462 1458 1453 1450 1450 1450 1450 1451 1452 1454 1455 1456 1458 1458 1460 1462 1465 1467 1468 1470 1471 1475 1478 1481 1485 1488 1491 1493 1496 1499 1501 1504 1506 1508 1510 1512 1514 1516 1518 1519 1521 1523 1524 1525 1527 1528
1476 1474 1465 1459 1456 1452 1450 1449 1449 1449 1449 1451 1452 1452 1453 1456 1457 1458 1461 1464 1465 1467 1468 1470 1473 1476 1480 1483 1486 1489 1492 1495 1498 1500 1503 1505 1507 1509 1511 1513 1515 1517 1519 1521 1522 1524 1525 1527 1529
1474 1473 1461 1456 1454 1450 1449 1448 1448 1448 1448 1449 1450 1450 1451 1452 1454 1457 1459 1462 1463 1465 1467 1469 1471 1474 1478 1481 1484 1488 1491 1494 1496 1499 1502 1504 1506 1509 1511 1512 1514 1516 1518 1520 1522 1523 1525 1527 1529
1469 1465 1455 1453 1452 1450 1449 1448 1448 1447 1447 1447 1448 1448 1449 1450 1451 1453 1455 1458 1460 1463 1465 1467 1469 1472 1475 1478 1482 1485 1488 1492 1494 1497 1500 1503 1505 1508 1510 1512 1514 1515 1518 1520 1521 1523 1525 1527 1528
1462 1458 1455 1453 1452 1451 1449 1448 1447 1447 1445 1445 1446 1447 1447 1448 1449 1451 1452 1455 1457 1460 1462 1465 1467 1469 1472 1475 1479 1482 1485 1489 1492 1495 1498 1501 1504 1506 1508 1510 1512 1514 1517 1519 1521 1523 1524 1526 1528
1457 1454 1453 1451 1451 1450 1448 1446 1444 1443 1441 1442 1443 1443 1444 1445 1446 1447 1449 1451 1454 1456 1459 1462 1464 1467 1469 1472 1475 1479 1482 1486 1489 1493 1496 1499 1501 1504 1506 1509 1511 1513 1515 1517 1520 1522 1524 1526 1528
1454 1451 1450 1449 1448 1447 1445 1443 1440 1437 1438 1438 1438 1439 1439 1440 1441 1444 1446 1447 1450 1452 1455 1457 1460 1463 1466 1469 1472 1475 1479 1482 1486 1490 1493 1496 1499 1502 1504 1507 1509 1511 1514 1516 1519 1521 1523 1525 1527
1451 1450 1448 1447 1445 1444 1442 1437 1436 1431 1433 1433 1433 1433 1434 1435 1437 1439 1441 1442 1444 1447 1450 1453 1456 1459 1462 1465 1468 1472 1475 1479 1483 1486 1490 1493 1496 1499 1502 1505 1508 1510 1512 1515 1517 1520 1522 1524 1526
1451 1449 1446 1443 1441 1440 1439 1433 1430 1427 1428 1427 1427 1428 1428 1429 1431 1433 1435 1437 1439 1442 1445 1448 1451 1454 1458 1461 1465 1468 1472 1476 1479 1483 1487 1490 1493 1496 1499 1502 1505 1508 1511 1513 1516 1518 1521 1523 1524
1449 1447 1444 1437 1436 1436 1439 1430 1425 1424 1423 1421 1421 1422 1422 1423 1424 1427 1429 1431 1434 1436 1439 1442 1445 1449 1452 1456 1460 1464 1468 1471 1475 1479 1483 1486 1490 1493 1496 1499 1502 1505 1508 1511 1514 1516 1518 1520 1522
1447 1446 1440 1435 1431 1431 1432 1425 1420 1419 1418 1416 1416 1416 1416 1416 1418 1420 1423 1425 1428 1430 1433 1436 1440 1443 1447 1451 1456 1460 1464 1467 1471 1475 1479 1482 1486 1489 1493 1496 1499 1503 1505 1508 1511 1514 1516 1518 1520
1447 1444 1437 1434 1430 1429 1428 1421 1416 1414 1413 1411 1410 1410 1410 1411 1412 1414 1416 1418 1421 1425 1428 1430 1434 1438 1442 1446 1450 1455 1459 1463 1466 1470 1474 1478 1482 1486 1489 1493 1496 1499 1502 1505 1508 1511 1513 1516 1518
1443 1441 1437 1431 1427 1427 1424 1418 1413 1410 1409 1406 1405 1404 1404 1404 1405 1408 1409 1412 1415 1418 1421 1424 1427 1432 1436 1439 1443 1448 1452 1457 1461 1465 1469 1473 1477 1481 1485 1488 1492 1495 1498 1501 1504 1507 1510 1513 1515
1441 1441 1435 1428 1424 1424 1420 1413 1408 1404 1402 1401 1400 1399 1398 1398 1399 1401 1404 1406 1408 1411 1415 1418 1421 1425 1429 1432 1436 1442 1447 1452 1456 1460 1464 1468 1472 1476 1480 1484 1487 1491 1494 1497 1500 1503 1506 1509 1511
1438 1438 1433 1429 1424 1421 1419 1411 1403 1398 1396 1395 1394 1394 1393 1394 1395 1396 1397 1399 1402 1405 1409 1412 1415 1419 1423 1427 1432 1437 1443 1447 1451 1454 1458 1463 1467 1471 1475 1479 1483 1486 1490 1493 1496 1499 1501 1504 1507
1437 1431 1429 1427 1428 1426 1422 1417 1401 1394 1391 1390 1389 1389 1389 1390 1390 1391 1392 1394 1397 1399 1403 1406 1410 1414 1417 1421 1425 1429 1433 1437 1441 1446 1452 1457 1462 1466 1470 1474 1478 1482 1485 1488 1491 1495 1497 1500 1502
1432 1429 1427 1425 1425 1425 1419 1418 1400 1390 1388 1385 1385 1385 1386 1386 1387 1387 1388 1390 1392 1395 1397 1400 1404 1408 1412 1415 1419 1423 1427 1432 1437 1442 1447 1451 1456 1460 1464 1468 1473 1476 1479 1483 1486 1489 1492 1495 1497
1430 1429 1425 1422 1424 1426 1411 1412 1400 1389 1383 1381 1381 1381 1382 1383 1384 1385 1385 1386 1388 1391 1393 1396 1399 1402 1406 1410 1413 1416 1421 1425 1430 1435 1439 1444 1449 1453 1458 1462 1466 1470 1474 1477 1481 1484 1487 1490 1492
1431 1435 1435 1430 1426 1416 1399 1399 1394 1382 1378 1378 1378 1379 1380 1381 1381 1382 1382 1383 1385 1387 1389 1391 1393 1397 1400 1403 1407 1410 1415 1419 1423 1428 1432 1437 1441 1445 1450 1455 1459 1463 1467 1471 1475 1478 1481 1484 1487
1432 1434 1439 1436 1424 1410 1399 1396 1388 1378 1376 1376 1377 1378 1380 1381 1381 1381 1381 1381 1381 1383 1384 1386 1388 1392 1394 1397 1401 1405 1409 1413 1417 1421 1425 1430 1433 1438 1443 1448 1452 1457 1461 1465 1469 1472 1475 1479 1481
1431 1431 1428 1431 1424 1419 1404 1391 1384 1377 1376 1376 1377 1379 1380 1381 1380 1380 1380 1380 1380 1380 1381 1383 1385 1387 1389 1392 1395 1399 1403 1407 1410 1414 1419 1424 1428 1432 1437 1441 1446 1450 1455 1459 1463 1466 1469 1472 1475
1427 1427 1430 1432 1429 1419 1401 1393 1389 1382 1379 1378 1379 1380 1381 1381 1380 1380 1379 1379 1378 1378 1379 1380 1381 1383 1384 1387 1390 1393 1396 1400 1404 1408 1413 1417 1421 1426 1430 1435 1439 1444 1448 1452 1456 1459 1463 1466 1469
1427 1427 1427 1427 1424 1421 1409 1397 1383 1382 1381 1382 1381 1381 1382 1382 1380 1379 1378 1377 1377 1376 1376 1376 1377 1379 1380 1382 1384 1387 1390 1394 1398 1402 1406 1410 1414 1419 1423 1427 1432 1436 1440 1445 1449 1452 1456 1459 1462
1422 1422 1425 1430 1425 1417 1413 1401 1384 1383 1382 1382 1383 1383 1382 1381 1380 1379 1377 1376 1375 1374 1373 1373 1373 1375 1376 1377 1379 1382 1384 1388 1391 1394 1399 1403 1407 1412 1416 1421 1425 1429 1433 1437 1441 1445 1448 1451 1454